Weather History for Guymon, OK

Change the Weather History Date:

Tuesday, April 30, 2013

  Actual Average Record
Temperature  
Mean Temperature 77 °F 60 °F  
Max Temperature 95 °F 75 °F 96 °F (2002)
Min Temperature 58 °F 45 °F 33 °F (2005)
Degree Days  
Heating Degree Days 0 6  
Month to date heating degree days 422 306  
Since 1 July heating degree days 4213 4353  
Cooling Degree Days 12 1  
Month to date cooling degree days 25 13  
Year to date cooling degree days 25 15  
Growing Degree Days 27 (Base 50)    
Moisture  
Dew Point 36 °F    
Average Humidity 29    
Maximum Humidity 46    
Minimum Humidity 12    
Precipitation  
Precipitation 0.00 in 0.05 in 0.70 in (1999)
Month to date precipitation 0.49 1.51  
Year to date precipitation 2.19 3.81  
Snow  
Snow 0.00 in - - ()
Month to date snowfall T  
Since 1 July snowfall 22.0  
Snow Depth 0.00 in    
Sea Level Pressure  
Sea Level Pressure 29.46 in    
Wind  
Wind Speed 14 mph (SSE)    
Max Wind Speed 29 mph    
Max Gust Speed 41 mph    
Visibility 10 miles    
Events      
T = Trace of Precipitation, MM = Missing Value Source: NWS Daily Summary

Daily Weather History Graph

Daily Weather History Graph

Search for Another Location

Airport:

Trip Planner

Search our weather history database for the weather conditions in past years. The results will help you decide how hot, cold, wet, or windy it might be!

Date:

Astronomy

Apr. 30, 2013 Rise Set
Actual Time 6:53 AM CDT 8:33 PM CDT
Civil Twilight 6:25 AM CDT 9:01 PM CDT
Nautical Twilight 5:52 AM CDT 9:35 PM CDT
Astronomical Twilight 5:16 AM CDT 10:10 PM CDT
Moon 12:56 AM CDT (4/30) 11:25 AM CDT (4/30)
Length of Visible Light 14h 36m
Length of Day
13h 40m
Waning Gibbous, 70% of the Moon is Illuminated
Apr 30
Waning Gibbous
May 2
Last Quarter
May 9
New
May 17
First Quarter
May 24
Full

Hourly Weather History & Observations

Time (CDT) Temp. Dew Point Humidity Pressure Visibility Wind Dir Wind Speed Gust Speed Precip Events Conditions
12:53 AM 70.0 °F 35.1 °F 28% 29.47 in 10.0 mi South 18.4 mph - N/A   Clear
1:53 AM 70.0 °F 34.0 °F 27% 29.47 in 10.0 mi South 18.4 mph - N/A   Clear
2:53 AM 66.0 °F 34.0 °F 30% 29.47 in 10.0 mi South 18.4 mph - N/A   Clear
3:53 AM 66.9 °F 36.0 °F 32% 29.45 in 10.0 mi South 19.6 mph - N/A   Clear
4:53 AM 66.0 °F 39.9 °F 38% 29.45 in 10.0 mi South 19.6 mph - N/A   Clear
5:53 AM 64.0 °F 39.9 °F 41% 29.46 in 10.0 mi SSW 17.3 mph - N/A   Clear
6:53 AM 61.0 °F 39.9 °F 46% 29.49 in 10.0 mi South 10.4 mph - N/A   Clear
7:53 AM 61.0 °F 39.9 °F 46% 29.49 in 10.0 mi SSW 11.5 mph - N/A   Clear
8:53 AM 69.1 °F 36.0 °F 30% 29.49 in 10.0 mi SW 17.3 mph - N/A   Clear
9:53 AM 73.9 °F 32.0 °F 21% 29.49 in 10.0 mi SW 12.7 mph - N/A   Clear
10:53 AM 81.0 °F 28.9 °F 15% 29.50 in 10.0 mi Calm Calm - N/A   Clear
11:53 AM 84.0 °F 28.9 °F 14% 29.49 in 10.0 mi NNE 8.1 mph - N/A   Clear
12:53 PM 86.0 °F 30.9 °F 14% 29.49 in 10.0 mi North 13.8 mph - N/A   Clear
1:53 PM 88.0 °F 30.9 °F 13% 29.48 in 10.0 mi NNE 8.1 mph - N/A   Clear
2:53 PM 90.0 °F 30.9 °F 12% 29.47 in 10.0 mi ENE 8.1 mph - N/A   Clear
3:53 PM 91.0 °F 32.0 °F 12% 29.44 in 10.0 mi North 5.8 mph - N/A   Clear
4:53 PM 93.0 °F 35.1 °F 13% 29.41 in 10.0 mi ENE 6.9 mph - N/A   Clear
5:53 PM 93.9 °F 32.0 °F 11% 29.39 in 10.0 mi Variable 6.9 mph - N/A   Clear
6:33 PM 93.2 °F 35.6 °F 13% 29.55 in 10.0 mi SE 13.8 mph 23.0 mph N/A   Clear
6:53 PM 91.9 °F 36.0 °F 14% 29.39 in 10.0 mi SSE 16.1 mph 34.5 mph N/A   Clear
7:53 PM 86.0 °F 41.0 °F 20% 29.42 in 10.0 mi SE 19.6 mph 32.2 mph N/A   Clear
8:53 PM 82.0 °F 42.1 °F 24% 29.42 in 10.0 mi SE 15.0 mph 27.6 mph N/A   Clear
9:53 PM 79.0 °F 43.0 °F 28% 29.44 in 10.0 mi SSE 19.6 mph 31.1 mph N/A   Clear
10:53 PM 75.9 °F 44.1 °F 32% 29.44 in 10.0 mi SSE 25.3 mph 33.4 mph N/A   Clear
11:53 PM 73.0 °F 48.0 °F 41% 29.43 in 10.0 mi SSE 23.0 mph 39.1 mph N/A   Clear